Terminal Aerodrome Forecast
Issued by NWS

Home | Current Version | Previous Version | Text Only | Print | Product List | Glossary On
Versions: 1 2 3 4 5 6 7 8 9 10 11 12 13 14 15 16 17 18 19 20 21 22 23 24 25 26 27 28 29 30 31 32 33
000
FTAK31 PANC 190726 AAA
TAFADU
TAF AMD
PADU 190726Z 1907/2006 29011KT P6SM -SHRA BKN025 OVC035
      TEMPO 1907/1909 OVC018
     FM191000 31013G21KT P6SM -SHRA BKN020 BKN035=

USA.gov is the U.S. government's official web portal to all federal, state and local government web resources and services.